Weather History for Cheyenne, WY

Change the Weather History Date:

Tuesday, March 19, 2013

  Actual Average Record
Temperature  
Mean Temperature 30 °F 37 °F  
Max Temperature 44 °F 48 °F 73 °F (2004)
Min Temperature 16 °F 25 °F -12 °F (1906)
Degree Days  
Heating Degree Days 35 28  
Month to date heating degree days 540 576  
Since 1 July heating degree days 5473 5595  
Cooling Degree Days 0 0  
Month to date cooling degree days 0 0  
Year to date cooling degree days 0 0  
Moisture  
Dew Point 7 °F    
Average Humidity 46    
Maximum Humidity 84    
Minimum Humidity 8    
Precipitation  
Precipitation T in 0.04 in 0.61 in (1942)
Month to date precipitation 0.31 0.59  
Year to date precipitation 1.19 1.39  
Snow  
Snow T in 0.40 in 7.50 in (1937)
Month to date snowfall 4.2 6.6  
Since 1 July snowfall 42.6 43.1  
Snow Depth 0.00 in    
Sea Level Pressure  
Sea Level Pressure 30.16 in    
Wind  
Wind Speed 15 mph (NNW)    
Max Wind Speed 37 mph    
Max Gust Speed 49 mph    
Visibility 10 miles    
Events      
T = Trace of Precipitation, MM = Missing Value Source: NWS Daily Summary

Daily Weather History Graph

Daily Weather History Graph

Search for Another Location

Airport:

Trip Planner

Search our weather history database for the weather conditions in past years. The results will help you decide how hot, cold, wet, or windy it might be!

Date:

Astronomy

Mar. 19, 2013 Rise Set
Actual Time 7:03 AM MDT 7:10 PM MDT
Civil Twilight 6:36 AM MDT 7:38 PM MDT
Nautical Twilight 6:04 AM MDT 8:10 PM MDT
Astronomical Twilight 5:31 AM MDT 8:43 PM MDT
Moon 11:53 AM MDT (3/19) 2:02 AM MDT (3/19)
Length of Visible Light 13h 01m
Length of Day
12h 06m
Waxing Crescent, 50% of the Moon is Illuminated
Mar 19
Waxing Crescent
Mar 27
Full
Apr 2
Last Quarter
Apr 10
New
Apr 18
First Quarter

Hourly Weather History & Observations

Time (MDT) Temp. Windchill Dew Point Humidity Pressure Visibility Wind Dir Wind Speed Gust Speed Precip Events Conditions
12:53 AM 21.9 °F 17.2 °F 15.1 °F 75% 29.97 in 10.0 mi Variable 3.5 mph - N/A   Clear
1:53 AM 21.9 °F - 16.0 °F 78% 29.95 in 10.0 mi Calm Calm - N/A   Partly Cloudy
2:53 AM 26.1 °F 15.0 °F 12.0 °F 55% 29.94 in 10.0 mi West 12.7 mph - N/A   Clear
3:53 AM 30.9 °F 19.8 °F 8.1 °F 38% 29.94 in 10.0 mi WNW 16.1 mph 25.3 mph N/A   Clear
4:53 AM 21.9 °F 11.7 °F 12.9 °F 68% 30.04 in 10.0 mi North 9.2 mph 18.4 mph N/A   Partly Cloudy
5:30 AM 21.2 °F 8.9 °F 17.6 °F 86% 29.98 in 10.0 mi North 12.7 mph - N/A   Scattered Clouds
5:39 AM 21.2 °F 11.7 °F 17.6 °F 86% 29.98 in 10.0 mi North 8.1 mph - N/A   Mostly Cloudy
5:53 AM 21.0 °F 10.6 °F 18.0 °F 88% 30.09 in 10.0 mi North 9.2 mph - N/A   Scattered Clouds
6:53 AM 21.0 °F 11.4 °F 18.0 °F 88% 30.13 in 10.0 mi North 8.1 mph - N/A   Mostly Cloudy
7:53 AM 21.9 °F 14.5 °F 17.1 °F 82% 30.15 in 10.0 mi NW 5.8 mph - N/A   Clear
8:53 AM 28.0 °F 17.5 °F 12.9 °F 53% 30.14 in 10.0 mi WNW 12.7 mph 20.7 mph N/A   Clear
9:53 AM 32.0 °F 21.6 °F 7.0 °F 35% 30.14 in 10.0 mi WNW 15.0 mph 21.9 mph N/A   Clear
10:53 AM 35.1 °F 24.1 °F -0.9 °F 22% 30.12 in 10.0 mi NW 19.6 mph 28.8 mph N/A   Clear
11:53 AM 37.0 °F 24.5 °F -7.1 °F 15% 30.15 in 10.0 mi NW 29.9 mph 43.7 mph N/A   Clear
12:53 PM 39.9 °F 29.7 °F -6.0 °F 14% 30.15 in 10.0 mi NW 23.0 mph 39.1 mph N/A   Clear
1:53 PM 41.0 °F 30.9 °F -7.1 °F 13% 30.13 in 10.0 mi NW 24.2 mph 42.6 mph N/A   Clear
2:53 PM 42.1 °F 32.3 °F -9.0 °F 11% 30.11 in 10.0 mi NW 24.2 mph 39.1 mph N/A   Clear
3:53 PM 44.1 °F 34.0 °F -15.0 °F 8% 30.06 in 10.0 mi NW 29.9 mph 49.5 mph N/A   Clear
4:53 PM 43.0 °F 32.9 °F -14.1 °F 9% 30.14 in 10.0 mi NW 27.6 mph 39.1 mph N/A   Clear
5:53 PM 43.0 °F 34.2 °F -9.9 °F 10% 30.18 in 10.0 mi NNW 20.7 mph 33.4 mph N/A   Clear
6:09 PM 37.4 °F 27.8 °F 3.2 °F 24% 30.12 in 10.0 mi NNE 17.3 mph 23.0 mph N/A   Clear
6:53 PM 28.0 °F 15.3 °F 16.0 °F 61% 30.31 in 10.0 mi NE 18.4 mph 27.6 mph N/A   Clear
7:53 PM 24.1 °F 18.2 °F 15.1 °F 69% 30.38 in 10.0 mi NE 4.6 mph - N/A   Clear
8:53 PM 21.9 °F 12.5 °F 15.1 °F 75% 30.38 in 10.0 mi North 8.1 mph - N/A   Clear
9:53 PM 21.0 °F 12.4 °F 15.1 °F 78% 30.38 in 10.0 mi North 6.9 mph - N/A   Clear
10:49 PM 21.2 °F - 15.8 °F 80% 30.27 in 10.0 mi Calm Calm - N/A   Mostly Cloudy
10:53 PM 21.0 °F 12.4 °F 15.1 °F 78% 30.38 in 10.0 mi North 6.9 mph - N/A   Mostly Cloudy
11:10 PM 21.2 °F - 15.8 °F 80% 30.28 in 10.0 mi Calm Calm - N/A   Scattered Clouds
11:53 PM 18.0 °F 7.7 °F 12.0 °F 78% 30.40 in 10.0 mi SW 8.1 mph - N/A   Clear